Back to catalog

USA 24

AliveMilitaryLEO
NORAD 18010·PAYLOAD·🇺🇸 United States

Launched May 15, 1987 from Vandenberg Space Force Base

Loading…

Next Passes (next 24 hours)

TLE

FreshSource: Space-Track

Epoch: Sep 14, 2026, 14:29 UTC

1 18010U 87043F   26257.60395804  .00008103  00000-0  48711-3 0  9995
2 18010  63.2954 108.3610 0778208 106.2804 262.5224 13.87955168357868

Track USA 24 in real time with AllMySat

Download on the App Store